Overview Statistics Trail Chart Weather Telemetry Raw packets
 

This is the latest recevied weather packets stored in our database for station/object WA1TYB-13. If no packets are shown the sender has not sent any weather packets the latest 10 day(s).

<< 15 16 17 18 19 20 21 >>
Time Temp. Humidity Pressure Rain* Wind** Luminosity Snow
1788509468 13.33° C 55% 1009.4 hPa 0 mm - 0 W/m² -
1788509164 13.33° C 56% 1009.4 hPa 0 mm - 0 W/m² -
1788508860 13.33° C 56% 1009.6 hPa 0 mm - 0 W/m² -
1788508556 13.33° C 58% 1009.3 hPa 0 mm - 0 W/m² -
1788508256 13.89° C 58% 1009.4 hPa 0 mm - 0 W/m² -
1788507955 14.44° C 56% 1009 hPa 0 mm - 0 W/m² -
1788507650 14.44° C 56% 1009.2 hPa 0 mm - 0 W/m² -
1788507345 14.44° C 55% 1009.3 hPa 0 mm - 0 W/m² -
1788507041 13.89° C 57% 1009.7 hPa 0 mm - 0 W/m² -
1788506737 13.89° C 57% 1009.7 hPa 0 mm - 0 W/m² -
1788506432 13.89° C 57% 1009.7 hPa 0 mm - 0 W/m² -
1788506127 13.89° C 58% 1009.5 hPa 0 mm - 0 W/m² -
1788505822 13.89° C 58% 1009.8 hPa 0 mm - 0 W/m² -
1788505521 14.44° C 56% 1009.9 hPa 0 mm - 0 W/m² -
1788505216 14.44° C 56% 1009.6 hPa 0 mm - 0 W/m² -
1788504911 14.44° C 55% 1009.7 hPa 0 mm - 0 W/m² -
1788504607 15° C 55% 1009.8 hPa 0 mm - 0 W/m² -
1788504303 15° C 52% 1009.8 hPa 0 mm - 0 W/m² -
1788503997 15° C 52% 1009.7 hPa 0 mm - 0 W/m² -
1788503694 15° C 51% 1009.7 hPa 0 mm - 0 W/m² -
1788503388 15.56° C 51% 1009.8 hPa 0 mm - 0 W/m² -
1788503085 16.11° C 49% 1010.1 hPa 0 mm - 0 W/m² -
1788502780 16.11° C 49% 1009.9 hPa 0 mm - 0 W/m² -
1788502477 16.11° C 48% 1010.1 hPa 0 mm - 0 W/m² -
1788502172 16.11° C 48% 1010.1 hPa 0 mm - 0 W/m² -

* Rain latest hour (hover to see other rain measurements)
** Current wind speed in m/s (hover to see current wind gust speed)